Terminal Aerodrome Forecast
Issued by NWS

Home | Current Version | Previous Version | Text Only | Print | Product List | Glossary On
Versions: 1 2 3 4 5 6 7 8 9 10 11 12 13 14 15 16 17 18 19 20 21 22 23 24 25 26 27 28 29 30 31 32
000
FTUS45 KSLC 042326
TAFENV
TAF
KENV 042326Z 0500/0524 29014G23KT P6SM SCT090 BKN140
     FM050200 28011KT P6SM VCSH SCT080 BKN130
     FM051600 12008KT P6SM FEW090 BKN200
      AMD LTD TO CLD VIS AND WIND=

USA.gov is the U.S. government's official web portal to all federal, state and local government web resources and services.